EJU82RL LFPO-LGRP

Flight info

Callsign EJU82RL
Flight time 3h 8m
Altitude 37000
Route BUBLI DCT LUVAL DCT BEGAR DCT TRA DCT GAMSA DCT GEDSO DCT VEKEN DCT NEMEK DCT NAVSU DCT SOLGU DCT RUDAR DCT OSLUD DCT BUNEX DCT MODRA DCT MEDUX UM867 KOGAT DCT ERANA DCT TSL DCT MES UN139 LURUS UL995 CODIC
Aircraft A320/M-SDE3FGHIRWY/LB1

Departure

Time 2026-05-07 14:56
Airport Paris-Orly Airport (LFPO)

Arrival

Time 2026-05-07 18:04
Airport Rhodes International Airport "Diagoras" (LGRP)
Time Latitude Longitude Altitude Speed Heading
2026-05-07 14:42 48.72724 2.35713 297 ft 0 kts 148°
2026-05-07 14:48 48.72727 2.35709 297 ft 2 kts 148°
2026-05-07 14:48 48.72743 2.35694 298 ft 3 kts 147°
2026-05-07 14:48 48.72760 2.35677 300 ft 3 kts 134°
2026-05-07 14:48 48.72771 2.35653 297 ft 3 kts 113°
2026-05-07 14:49 48.72779 2.35624 297 ft 3 kts 118°
2026-05-07 14:49 48.72790 2.35599 300 ft 3 kts 133°
2026-05-07 14:49 48.72804 2.35581 301 ft 3 kts 160°
2026-05-07 14:49 48.72823 2.35572 300 ft 2 kts 162°
2026-05-07 14:50 48.72830 2.35569 298 ft 0 kts 164°
2026-05-07 14:52 48.72775 2.35592 299 ft 10 kts 164°
2026-05-07 14:52 48.72715 2.35618 299 ft 8 kts 165°
2026-05-07 14:53 48.72663 2.35639 300 ft 9 kts 165°
2026-05-07 14:53 48.72606 2.35663 298 ft 8 kts 165°
2026-05-07 14:53 48.72535 2.35692 297 ft 13 kts 165°
2026-05-07 14:53 48.72465 2.35675 298 ft 11 kts 237°
2026-05-07 14:54 48.72401 2.35622 296 ft 10 kts 172°
2026-05-07 14:54 48.72326 2.35635 296 ft 11 kts 196°
2026-05-07 14:54 48.72256 2.35602 298 ft 10 kts 190°
2026-05-07 14:54 48.72175 2.35622 297 ft 15 kts 166°
2026-05-07 14:55 48.72063 2.35691 299 ft 18 kts 141°
2026-05-07 14:55 48.71991 2.35849 301 ft 18 kts 119°
2026-05-07 14:55 48.71972 2.36032 301 ft 18 kts 73°
2026-05-07 14:55 48.72012 2.36246 299 ft 29 kts 75°
2026-05-07 14:56 48.72120 2.36829 298 ft 89 kts 74°
2026-05-07 14:56 48.72335 2.37997 300 ft 142 kts 75°
2026-05-07 14:56 48.72641 2.39625 481 ft 167 kts 74°
2026-05-07 14:56 48.72954 2.41291 1255 ft 163 kts 74°
2026-05-07 14:57 48.73262 2.42968 1830 ft 172 kts 73°
2026-05-07 14:57 48.73602 2.44822 2083 ft 194 kts 73°
2026-05-07 14:57 48.73974 2.46913 2307 ft 216 kts 78°
2026-05-07 14:57 48.74142 2.49310 2595 ft 241 kts 85°
2026-05-07 14:58 48.74240 2.51953 3067 ft 257 kts 86°
2026-05-07 14:58 48.74321 2.54694 3744 ft 264 kts 86°
2026-05-07 14:58 48.74458 2.57476 3953 ft 264 kts 84°
2026-05-07 14:58 48.74656 2.60205 4003 ft 264 kts 83°
2026-05-07 14:59 48.74884 2.62972 4008 ft 264 kts 82°
2026-05-07 14:59 48.75118 2.65728 4008 ft 264 kts 82°
2026-05-07 14:59 48.75350 2.68486 4002 ft 264 kts 82°
2026-05-07 14:59 48.75576 2.71245 4011 ft 264 kts 83°
2026-05-07 15:00 48.75796 2.74009 4008 ft 264 kts 83°
2026-05-07 15:00 48.76007 2.76734 4014 ft 264 kts 83°
2026-05-07 15:00 48.76219 2.79497 4005 ft 263 kts 83°
2026-05-07 15:00 48.76432 2.82266 4008 ft 264 kts 83°
2026-05-07 15:01 48.76643 2.85022 4008 ft 264 kts 83°
2026-05-07 15:01 48.76854 2.87785 4008 ft 264 kts 83°
2026-05-07 15:01 48.77063 2.90557 4007 ft 264 kts 83°
2026-05-07 15:01 48.77271 2.93339 4605 ft 267 kts 83°
2026-05-07 15:02 48.77482 2.96142 5432 ft 269 kts 84°
2026-05-07 15:02 48.77710 2.98940 6214 ft 272 kts 82°
2026-05-07 15:02 48.78019 3.01793 6943 ft 276 kts 81°
2026-05-07 15:02 48.78372 3.04682 7675 ft 280 kts 80°
2026-05-07 15:03 48.78741 3.07600 8394 ft 284 kts 80°
2026-05-07 15:03 48.79113 3.10574 9123 ft 288 kts 80°
2026-05-07 15:03 48.79479 3.13547 9834 ft 292 kts 80°
2026-05-07 15:03 48.79853 3.16632 10295 ft 306 kts 80°
2026-05-07 15:04 48.80246 3.19931 10441 ft 329 kts 81°
2026-05-07 15:04 48.80665 3.23464 10567 ft 351 kts 81°
2026-05-07 15:04 48.81105 3.27206 10816 ft 366 kts 80°
2026-05-07 15:04 48.81556 3.31054 11354 ft 372 kts 80°
2026-05-07 15:05 48.81998 3.34900 11950 ft 376 kts 82°
2026-05-07 15:05 48.82153 3.38880 12545 ft 379 kts 92°
2026-05-07 15:05 48.81924 3.42888 13136 ft 383 kts 96°
2026-05-07 15:05 48.81663 3.46931 13721 ft 387 kts 96°
2026-05-07 15:06 48.81402 3.51006 14265 ft 390 kts 96°
2026-05-07 15:06 48.81141 3.55125 14794 ft 393 kts 96°
2026-05-07 15:06 48.80878 3.59278 15346 ft 397 kts 96°
2026-05-07 15:06 48.80616 3.63415 15837 ft 400 kts 96°
2026-05-07 15:07 48.80346 3.67637 16337 ft 403 kts 96°
2026-05-07 15:07 48.80071 3.71873 16829 ft 406 kts 96°
2026-05-07 15:07 48.79788 3.76161 17294 ft 409 kts 96°
2026-05-07 15:07 48.79502 3.80478 17800 ft 412 kts 96°
2026-05-07 15:08 48.79215 3.84812 18254 ft 415 kts 96°
2026-05-07 15:08 48.78921 3.89197 18670 ft 418 kts 96°
2026-05-07 15:08 48.78627 3.93543 19074 ft 420 kts 96°
2026-05-07 15:08 48.78324 3.97974 19484 ft 423 kts 96°
2026-05-07 15:09 48.78018 4.02424 19891 ft 425 kts 96°
2026-05-07 15:09 48.77710 4.06889 20290 ft 427 kts 96°
2026-05-07 15:09 48.77255 4.11342 20682 ft 429 kts 104°
2026-05-07 15:09 48.76334 4.15650 21058 ft 430 kts 114°
2026-05-07 15:10 48.74948 4.19674 21439 ft 431 kts 124°
2026-05-07 15:10 48.73223 4.23401 21820 ft 432 kts 127°
2026-05-07 15:10 48.71492 4.27073 22196 ft 435 kts 127°
2026-05-07 15:10 48.69733 4.30818 22568 ft 437 kts 127°
2026-05-07 15:11 48.67964 4.34588 22928 ft 439 kts 127°
2026-05-07 15:11 48.66188 4.38366 23269 ft 441 kts 127°
2026-05-07 15:11 48.64404 4.42157 23624 ft 443 kts 127°
2026-05-07 15:11 48.62608 4.45964 23931 ft 445 kts 127°
2026-05-07 15:12 48.60804 4.49781 24226 ft 447 kts 127°
2026-05-07 15:12 48.59015 4.53564 24519 ft 448 kts 127°
2026-05-07 15:12 48.57192 4.57407 24804 ft 450 kts 127°
2026-05-07 15:12 48.55362 4.61254 25095 ft 452 kts 127°
2026-05-07 15:13 48.53526 4.65116 25375 ft 453 kts 127°
2026-05-07 15:13 48.51679 4.68998 25651 ft 455 kts 127°
2026-05-07 15:13 48.49824 4.72889 25920 ft 457 kts 127°
2026-05-07 15:13 48.47982 4.76749 26177 ft 458 kts 127°
2026-05-07 15:14 48.46112 4.80660 26428 ft 460 kts 127°
2026-05-07 15:14 48.44234 4.84582 26675 ft 462 kts 127°
2026-05-07 15:14 48.42351 4.88505 26905 ft 463 kts 127°
2026-05-07 15:14 48.40454 4.92455 27146 ft 465 kts 127°
2026-05-07 15:15 48.38575 4.96358 27385 ft 467 kts 127°
2026-05-07 15:15 48.36659 5.00330 27600 ft 469 kts 127°
2026-05-07 15:15 48.34736 5.04304 27836 ft 470 kts 127°
2026-05-07 15:15 48.32810 5.08289 28062 ft 472 kts 127°
2026-05-07 15:16 48.30960 5.12369 28358 ft 472 kts 121°
2026-05-07 15:16 48.29499 5.16790 28684 ft 473 kts 112°
2026-05-07 15:16 48.28487 5.21499 28998 ft 474 kts 104°
2026-05-07 15:16 48.27781 5.26338 29297 ft 474 kts 103°
2026-05-07 15:17 48.27080 5.31110 29606 ft 473 kts 103°
2026-05-07 15:17 48.26362 5.35936 29925 ft 473 kts 103°
2026-05-07 15:17 48.25640 5.40749 30228 ft 472 kts 103°
2026-05-07 15:17 48.24912 5.45565 30487 ft 472 kts 103°
2026-05-07 15:18 48.24183 5.50374 30733 ft 472 kts 103°
2026-05-07 15:18 48.23454 5.55188 30972 ft 472 kts 103°
2026-05-07 15:18 48.22738 5.59936 31198 ft 473 kts 103°
2026-05-07 15:18 48.22012 5.64749 31441 ft 473 kts 103°
2026-05-07 15:19 48.21283 5.69569 31682 ft 473 kts 103°
2026-05-07 15:19 48.20552 5.74382 31913 ft 473 kts 103°
2026-05-07 15:19 48.19819 5.79196 32159 ft 473 kts 103°
2026-05-07 15:19 48.19082 5.84009 32397 ft 473 kts 103°
2026-05-07 15:20 48.18341 5.88820 32620 ft 473 kts 103°
2026-05-07 15:20 48.17597 5.93628 32849 ft 474 kts 103°
2026-05-07 15:20 48.16861 5.98377 33077 ft 474 kts 103°
2026-05-07 15:20 48.16114 6.03195 33303 ft 474 kts 103°
2026-05-07 15:21 48.15366 6.08014 33525 ft 474 kts 103°
2026-05-07 15:21 48.14615 6.12835 33752 ft 475 kts 103°
2026-05-07 15:21 48.13861 6.17645 33963 ft 475 kts 103°
2026-05-07 15:21 48.13112 6.22399 34160 ft 475 kts 104°
2026-05-07 15:22 48.12350 6.27213 34358 ft 475 kts 104°
2026-05-07 15:22 48.11587 6.32033 34553 ft 475 kts 104°
2026-05-07 15:22 48.10823 6.36847 34750 ft 475 kts 104°
2026-05-07 15:22 48.10058 6.41658 34937 ft 475 kts 104°
2026-05-07 15:23 48.09292 6.46469 35117 ft 475 kts 104°
2026-05-07 15:23 48.08525 6.51275 35292 ft 475 kts 104°
2026-05-07 15:23 48.07757 6.56075 35462 ft 475 kts 104°
2026-05-07 15:23 48.06997 6.60820 35619 ft 475 kts 104°
2026-05-07 15:24 48.06224 6.65624 35782 ft 475 kts 104°
2026-05-07 15:24 48.05448 6.70427 35938 ft 474 kts 104°
2026-05-07 15:24 48.04670 6.75222 36105 ft 474 kts 104°
2026-05-07 15:24 48.03888 6.80023 36255 ft 474 kts 104°
2026-05-07 15:25 48.03106 6.84811 36400 ft 474 kts 105°
2026-05-07 15:25 48.02322 6.89597 36545 ft 474 kts 105°
2026-05-07 15:25 48.01533 6.94393 36686 ft 474 kts 105°
2026-05-07 15:25 48.00756 6.99118 36829 ft 474 kts 105°
2026-05-07 15:26 47.99965 7.03908 36989 ft 473 kts 105°
2026-05-07 15:26 47.99173 7.08692 37048 ft 475 kts 105°
2026-05-07 15:26 47.97579 7.18277 37047 ft 475 kts 105°
2026-05-07 15:27 47.95995 7.27799 37049 ft 476 kts 105°
2026-05-07 15:27 47.94391 7.37386 37050 ft 476 kts 105°
2026-05-07 15:28 47.92773 7.46956 37050 ft 476 kts 105°
2026-05-07 15:28 47.91134 7.56545 37046 ft 477 kts 106°
2026-05-07 15:29 47.88933 7.65859 37042 ft 476 kts 112°
2026-05-07 15:29 47.86610 7.75037 37040 ft 476 kts 112°
2026-05-07 15:30 47.84265 7.84282 37037 ft 476 kts 112°
2026-05-07 15:30 47.81932 7.93447 37037 ft 476 kts 112°
2026-05-07 15:31 47.79564 8.02679 37042 ft 477 kts 112°
2026-05-07 15:31 47.77237 8.11715 37036 ft 477 kts 112°
2026-05-07 15:32 47.74860 8.20939 37036 ft 477 kts 112°
2026-05-07 15:32 47.72485 8.30148 37036 ft 477 kts 113°
2026-05-07 15:33 47.70109 8.39280 37034 ft 477 kts 113°
2026-05-07 15:33 47.67766 8.48454 37032 ft 478 kts 111°
2026-05-07 15:34 47.65654 8.57835 37033 ft 479 kts 109°
2026-05-07 15:34 47.63963 8.65668 37034 ft 479 kts 110°
2026-05-07 15:35 47.61530 8.76580 37033 ft 479 kts 110°
2026-05-07 15:35 47.59740 8.84364 37032 ft 479 kts 111°
2026-05-07 15:36 47.57567 8.93724 37033 ft 479 kts 111°
2026-05-07 15:36 47.55401 9.03075 37030 ft 480 kts 110°
2026-05-07 15:37 47.53238 9.12441 37029 ft 480 kts 111°
2026-05-07 15:37 47.51081 9.21732 37034 ft 480 kts 111°
2026-05-07 15:38 47.48901 9.31074 37034 ft 480 kts 111°
2026-05-07 15:38 47.46710 9.40410 37036 ft 481 kts 111°
2026-05-07 15:39 47.44505 9.49756 37038 ft 481 kts 111°
2026-05-07 15:39 47.42292 9.59083 37036 ft 481 kts 111°
2026-05-07 15:40 47.40378 9.68480 37035 ft 483 kts 103°
2026-05-07 15:40 47.39047 9.78216 37032 ft 483 kts 103°
2026-05-07 15:41 47.37696 9.87943 37032 ft 483 kts 103°
2026-05-07 15:41 47.36350 9.97603 37035 ft 483 kts 103°
2026-05-07 15:42 47.34985 10.07327 37035 ft 483 kts 103°
2026-05-07 15:42 47.33606 10.17046 37028 ft 483 kts 103°
2026-05-07 15:43 47.32231 10.26672 37035 ft 484 kts 103°
2026-05-07 15:43 47.30833 10.36380 37034 ft 484 kts 104°
2026-05-07 15:44 47.29429 10.46086 37025 ft 483 kts 104°
2026-05-07 15:44 47.28018 10.55787 37022 ft 483 kts 104°
2026-05-07 15:45 47.26610 10.65403 37009 ft 484 kts 104°
2026-05-07 15:45 47.25189 10.75097 37008 ft 484 kts 104°
2026-05-07 15:46 47.23039 10.89623 37006 ft 484 kts 104°
2026-05-07 15:47 47.21595 10.99247 37003 ft 484 kts 104°
2026-05-07 15:47 47.20130 11.08933 37001 ft 484 kts 105°
2026-05-07 15:48 47.18657 11.18620 36999 ft 485 kts 104°
2026-05-07 15:48 47.17197 11.28255 37003 ft 486 kts 104°
2026-05-07 15:49 47.15714 11.37984 37005 ft 486 kts 105°
2026-05-07 15:49 47.14225 11.47648 36994 ft 486 kts 105°
2026-05-07 15:50 47.12722 11.57342 36995 ft 486 kts 105°
2026-05-07 15:50 47.11219 11.66967 36991 ft 486 kts 105°
2026-05-07 15:51 47.09694 11.76643 36989 ft 486 kts 105°
2026-05-07 15:51 47.08073 11.86284 36995 ft 484 kts 111°
2026-05-07 15:52 47.05320 11.95247 36994 ft 481 kts 119°
2026-05-07 15:52 47.02388 12.03996 37003 ft 481 kts 119°
2026-05-07 15:53 46.99428 12.12831 37016 ft 482 kts 119°
2026-05-07 15:53 46.96488 12.21568 37024 ft 482 kts 120°
2026-05-07 15:54 46.93511 12.30376 37027 ft 481 kts 120°
2026-05-07 15:54 46.90534 12.39157 37027 ft 481 kts 120°
2026-05-07 15:55 46.87548 12.47938 37018 ft 482 kts 120°
2026-05-07 15:55 46.84573 12.56676 37013 ft 482 kts 120°
2026-05-07 15:56 46.81573 12.65463 37033 ft 483 kts 120°
2026-05-07 15:56 46.78560 12.74225 37010 ft 482 kts 120°
2026-05-07 15:57 46.75556 12.82922 36999 ft 482 kts 120°
2026-05-07 15:57 46.72531 12.91662 36999 ft 482 kts 120°
2026-05-07 15:58 46.69508 13.00384 36989 ft 482 kts 121°
2026-05-07 15:58 46.66491 13.09047 36978 ft 483 kts 121°
2026-05-07 15:59 46.63439 13.17774 36969 ft 483 kts 121°
2026-05-07 15:59 46.60388 13.26488 36964 ft 483 kts 121°
2026-05-07 16:00 46.57327 13.35183 36962 ft 483 kts 120°
2026-05-07 16:00 46.53715 13.43250 36958 ft 478 kts 130°
2026-05-07 16:01 46.49806 13.51056 36958 ft 478 kts 130°
2026-05-07 16:01 46.45896 13.58873 36959 ft 478 kts 130°
2026-05-07 16:02 46.41977 13.66682 36960 ft 478 kts 130°
2026-05-07 16:02 46.38086 13.74410 36947 ft 478 kts 131°
2026-05-07 16:03 46.34148 13.82180 36956 ft 478 kts 131°
2026-05-07 16:03 46.30211 13.89953 36956 ft 479 kts 131°
2026-05-07 16:04 46.26268 13.97724 36972 ft 477 kts 131°
2026-05-07 16:04 46.22360 14.05397 36957 ft 477 kts 131°
2026-05-07 16:05 46.18423 14.13096 36959 ft 477 kts 131°
2026-05-07 16:05 46.14481 14.20794 36951 ft 476 kts 131°
2026-05-07 16:06 46.10554 14.28434 36942 ft 476 kts 131°
2026-05-07 16:06 46.06603 14.36108 36948 ft 476 kts 132°
2026-05-07 16:07 46.02680 14.43707 36953 ft 476 kts 132°
2026-05-07 16:07 45.98725 14.51351 36959 ft 475 kts 132°
2026-05-07 16:08 45.94770 14.58968 36966 ft 475 kts 132°
2026-05-07 16:08 45.90813 14.66573 36972 ft 474 kts 132°
2026-05-07 16:09 45.86879 14.74101 36979 ft 474 kts 133°
2026-05-07 16:09 45.82910 14.81675 36979 ft 474 kts 133°
2026-05-07 16:10 45.78943 14.89232 36971 ft 474 kts 133°
2026-05-07 16:10 45.74969 14.96780 36972 ft 474 kts 133°
2026-05-07 16:11 45.71023 15.04263 36964 ft 473 kts 133°
2026-05-07 16:11 45.67049 15.11768 36965 ft 474 kts 133°
2026-05-07 16:12 45.63065 15.19290 36973 ft 473 kts 133°
2026-05-07 16:12 45.59079 15.26775 36977 ft 473 kts 133°
2026-05-07 16:13 45.55016 15.34056 36981 ft 470 kts 136°
2026-05-07 16:13 45.50660 15.40991 36979 ft 468 kts 139°
2026-05-07 16:14 45.46236 15.47818 36985 ft 468 kts 138°
2026-05-07 16:14 45.41864 15.54701 36993 ft 468 kts 137°
2026-05-07 16:15 45.37531 15.61637 36993 ft 468 kts 137°
2026-05-07 16:15 45.33233 15.68510 36996 ft 468 kts 137°
2026-05-07 16:16 45.28879 15.75405 37003 ft 468 kts 137°
2026-05-07 16:16 45.24522 15.82276 37006 ft 467 kts 137°
2026-05-07 16:17 45.20175 15.89141 37010 ft 467 kts 137°
2026-05-07 16:17 45.15847 15.95952 37014 ft 467 kts 137°
2026-05-07 16:18 45.11497 16.02776 37014 ft 466 kts 137°
2026-05-07 16:18 45.07139 16.09585 37014 ft 466 kts 137°
2026-05-07 16:19 45.02783 16.16376 37014 ft 465 kts 137°
2026-05-07 16:19 44.98458 16.23107 37013 ft 465 kts 137°
2026-05-07 16:20 44.94095 16.29879 37016 ft 466 kts 137°
2026-05-07 16:20 44.89729 16.36647 37016 ft 465 kts 137°
2026-05-07 16:21 44.85361 16.43400 37016 ft 465 kts 137°
2026-05-07 16:21 44.81021 16.50106 37017 ft 465 kts 137°
2026-05-07 16:22 44.76638 16.56843 37013 ft 466 kts 138°
2026-05-07 16:22 44.72281 16.63519 37014 ft 466 kts 138°
2026-05-07 16:23 44.67895 16.70239 37013 ft 466 kts 138°
2026-05-07 16:23 44.63493 16.76960 37014 ft 467 kts 138°
2026-05-07 16:24 44.59076 16.83686 37026 ft 467 kts 138°
2026-05-07 16:24 44.54699 16.90351 37023 ft 468 kts 137°
2026-05-07 16:25 44.50508 16.97395 37034 ft 471 kts 133°
2026-05-07 16:25 44.46529 17.04705 37036 ft 472 kts 132°
2026-05-07 16:26 44.43216 17.10774 37044 ft 471 kts 133°
2026-05-07 16:26 44.38504 17.19141 37048 ft 470 kts 134°
2026-05-07 16:27 44.35099 17.25084 37055 ft 471 kts 134°
2026-05-07 16:27 44.30338 17.33405 37054 ft 471 kts 133°
2026-05-07 16:28 44.26915 17.39403 37053 ft 471 kts 133°
2026-05-07 16:28 44.22857 17.46510 37055 ft 471 kts 133°
2026-05-07 16:29 44.18752 17.53666 37061 ft 472 kts 134°
2026-05-07 16:29 44.14646 17.60811 37058 ft 472 kts 134°
2026-05-07 16:30 44.10565 17.67908 37053 ft 473 kts 133°
2026-05-07 16:30 44.06516 17.75130 37044 ft 473 kts 133°
2026-05-07 16:31 44.02490 17.82412 37044 ft 474 kts 132°
2026-05-07 16:31 43.98458 17.89662 37048 ft 474 kts 133°
2026-05-07 16:32 43.94430 17.96834 37043 ft 474 kts 133°
2026-05-07 16:32 43.90354 18.04042 37045 ft 474 kts 133°
2026-05-07 16:33 43.86279 18.11244 37050 ft 474 kts 133°
2026-05-07 16:33 43.82205 18.18450 37044 ft 474 kts 133°
2026-05-07 16:34 43.78150 18.25601 37050 ft 474 kts 133°
2026-05-07 16:34 43.74061 18.32790 37052 ft 474 kts 133°
2026-05-07 16:35 43.69975 18.39960 37054 ft 474 kts 133°
2026-05-07 16:35 43.65911 18.47070 37052 ft 474 kts 133°
2026-05-07 16:36 43.61814 18.54216 37051 ft 474 kts 133°
2026-05-07 16:36 43.57722 18.61355 37052 ft 474 kts 133°
2026-05-07 16:37 43.53657 18.68437 37054 ft 473 kts 133°
2026-05-07 16:37 43.49561 18.75546 37067 ft 473 kts 133°
2026-05-07 16:38 43.45463 18.82624 37056 ft 472 kts 133°
2026-05-07 16:38 43.41356 18.89698 37055 ft 473 kts 133°
2026-05-07 16:39 43.37271 18.96710 37059 ft 472 kts 133°
2026-05-07 16:39 43.33164 19.03754 37062 ft 472 kts 133°
2026-05-07 16:40 43.29049 19.10797 37059 ft 472 kts 133°
2026-05-07 16:40 43.24927 19.17834 37062 ft 472 kts 132°
2026-05-07 16:41 43.20839 19.24808 37065 ft 472 kts 132°
2026-05-07 16:41 43.16710 19.31818 37065 ft 472 kts 132°
2026-05-07 16:42 43.12574 19.38813 37063 ft 472 kts 132°
2026-05-07 16:42 43.08431 19.45814 37063 ft 472 kts 132°
2026-05-07 16:43 43.04315 19.52764 37062 ft 473 kts 132°
2026-05-07 16:43 43.00173 19.59742 37063 ft 473 kts 132°
2026-05-07 16:44 42.96018 19.66715 37054 ft 473 kts 132°
2026-05-07 16:44 42.91863 19.73683 37063 ft 473 kts 132°
2026-05-07 16:45 42.87719 19.80618 37070 ft 474 kts 132°
2026-05-07 16:45 42.83552 19.87579 37075 ft 474 kts 132°
2026-05-07 16:46 42.79353 19.94549 37085 ft 474 kts 132°
2026-05-07 16:46 42.75186 20.01446 37089 ft 474 kts 132°
2026-05-07 16:47 42.70998 20.08392 37086 ft 474 kts 132°
2026-05-07 16:47 42.66800 20.15338 37087 ft 476 kts 131°
2026-05-07 16:48 42.62619 20.22225 37088 ft 475 kts 132°
2026-05-07 16:48 42.58404 20.29139 37093 ft 475 kts 132°
2026-05-07 16:49 42.54195 20.36039 37091 ft 474 kts 132°
2026-05-07 16:49 42.49986 20.42932 37094 ft 474 kts 132°
2026-05-07 16:50 42.45793 20.49781 37100 ft 475 kts 132°
2026-05-07 16:50 42.41560 20.56671 37101 ft 475 kts 132°
2026-05-07 16:51 42.37320 20.63545 37100 ft 475 kts 132°
2026-05-07 16:51 42.33080 20.70419 37112 ft 476 kts 132°
2026-05-07 16:52 42.28863 20.77240 37110 ft 476 kts 133°
2026-05-07 16:52 42.24615 20.84096 37115 ft 476 kts 132°
2026-05-07 16:53 42.20358 20.90944 37119 ft 476 kts 132°
2026-05-07 16:53 42.16097 20.97787 37130 ft 476 kts 132°
2026-05-07 16:54 42.11856 21.04580 37123 ft 475 kts 134°
2026-05-07 16:54 42.07161 21.10794 37126 ft 473 kts 140°
2026-05-07 16:55 42.02357 21.16860 37135 ft 473 kts 140°
2026-05-07 16:55 41.97563 21.22919 37120 ft 473 kts 139°
2026-05-07 16:56 41.92768 21.28995 37116 ft 473 kts 139°
2026-05-07 16:56 41.85604 21.38036 37108 ft 472 kts 139°
2026-05-07 16:57 41.80802 21.44079 37110 ft 472 kts 139°
2026-05-07 16:57 41.76034 21.50067 37111 ft 472 kts 139°
2026-05-07 16:58 41.71227 21.56083 37111 ft 473 kts 139°
2026-05-07 16:58 41.66412 21.62096 37113 ft 473 kts 139°
2026-05-07 16:59 41.61602 21.68095 37123 ft 473 kts 139°
2026-05-07 16:59 41.56813 21.74058 37126 ft 473 kts 139°
2026-05-07 17:00 41.51991 21.80051 37121 ft 473 kts 139°
2026-05-07 17:00 41.47167 21.86026 37122 ft 473 kts 139°
2026-05-07 17:01 41.42342 21.91996 37128 ft 473 kts 139°
2026-05-07 17:01 41.37544 21.97927 37133 ft 473 kts 139°
2026-05-07 17:02 41.32703 22.03891 37140 ft 473 kts 139°
2026-05-07 17:02 41.27866 22.09822 37142 ft 473 kts 139°
2026-05-07 17:03 41.23021 22.15754 37143 ft 473 kts 139°
2026-05-07 17:03 41.18207 22.21645 37149 ft 473 kts 139°
2026-05-07 17:04 41.13291 22.27452 37143 ft 472 kts 142°
2026-05-07 17:04 41.08177 22.32924 37144 ft 471 kts 144°
2026-05-07 17:05 41.03011 22.38299 37141 ft 472 kts 143°
2026-05-07 17:05 40.97877 22.43736 37140 ft 473 kts 143°
2026-05-07 17:06 40.92755 22.49238 37140 ft 474 kts 143°
2026-05-07 17:06 40.87659 22.54700 37133 ft 474 kts 143°
2026-05-07 17:07 40.82526 22.60179 37123 ft 474 kts 143°
2026-05-07 17:07 40.77387 22.65645 37123 ft 475 kts 143°
2026-05-07 17:08 40.72253 22.71094 37108 ft 475 kts 143°
2026-05-07 17:08 40.67072 22.76580 37103 ft 476 kts 143°
2026-05-07 17:09 40.61934 22.82013 37095 ft 476 kts 143°
2026-05-07 17:09 40.56750 22.87477 37092 ft 477 kts 143°
2026-05-07 17:10 40.51551 22.92937 37089 ft 478 kts 143°
2026-05-07 17:10 40.46387 22.98372 37093 ft 479 kts 140°
2026-05-07 17:11 40.41692 23.04618 37093 ft 481 kts 134°
2026-05-07 17:11 40.37093 23.11003 37103 ft 482 kts 134°
2026-05-07 17:12 40.32470 23.17393 37099 ft 483 kts 135°
2026-05-07 17:12 40.27828 23.23788 37109 ft 484 kts 135°
2026-05-07 17:13 40.23206 23.30137 37104 ft 484 kts 135°
2026-05-07 17:13 40.18549 23.36527 37110 ft 485 kts 135°
2026-05-07 17:14 40.13876 23.42918 37102 ft 486 kts 135°
2026-05-07 17:14 40.09193 23.49323 37103 ft 487 kts 135°
2026-05-07 17:15 40.04525 23.55693 37105 ft 488 kts 135°
2026-05-07 17:15 39.99817 23.62095 37106 ft 489 kts 135°
2026-05-07 17:16 39.95888 23.67412 37105 ft 489 kts 135°
2026-05-07 17:16 39.91157 23.73818 37104 ft 490 kts 135°
2026-05-07 17:17 39.86419 23.80232 37100 ft 491 kts 135°
2026-05-07 17:17 39.81708 23.86602 37102 ft 491 kts 135°
2026-05-07 17:18 39.76945 23.93011 37098 ft 492 kts 135°
2026-05-07 17:18 39.72177 23.99413 37099 ft 493 kts 135°
2026-05-07 17:19 39.67430 24.05767 37095 ft 494 kts 135°
2026-05-07 17:19 39.62645 24.12170 37097 ft 495 kts 135°
2026-05-07 17:20 39.57836 24.18593 37095 ft 496 kts 135°
2026-05-07 17:20 39.53023 24.25016 37099 ft 497 kts 135°
2026-05-07 17:21 39.48218 24.31403 37100 ft 498 kts 135°
2026-05-07 17:21 39.43371 24.37829 37102 ft 499 kts 135°
2026-05-07 17:22 39.38505 24.44264 37099 ft 500 kts 135°
2026-05-07 17:22 39.33633 24.50699 37105 ft 501 kts 135°
2026-05-07 17:23 39.28776 24.57110 37103 ft 502 kts 135°
2026-05-07 17:23 39.23874 24.63564 37106 ft 503 kts 135°
2026-05-07 17:24 39.18964 24.70008 37105 ft 503 kts 135°
2026-05-07 17:24 39.14074 24.76409 37105 ft 504 kts 135°
2026-05-07 17:25 39.09135 24.82861 37102 ft 505 kts 135°
2026-05-07 17:25 39.04194 24.89311 37104 ft 506 kts 135°
2026-05-07 17:26 38.99232 24.95768 37102 ft 507 kts 135°
2026-05-07 17:26 38.94286 25.02195 36960 ft 509 kts 137°
2026-05-07 17:27 38.91790 25.05431 37117 ft 509 kts 137°
2026-05-07 17:27 38.89285 25.08673 37115 ft 514 kts 137°
2026-05-07 17:27 38.84195 25.15263 37124 ft 523 kts 137°
2026-05-07 17:28 38.79022 25.21925 37120 ft 531 kts 137°
2026-05-07 17:28 38.73816 25.28629 37128 ft 535 kts 137°
2026-05-07 17:29 38.68550 25.35405 37122 ft 536 kts 137°
2026-05-07 17:29 38.63269 25.42174 37136 ft 536 kts 137°
2026-05-07 17:30 38.57988 25.48925 37124 ft 536 kts 137°
2026-05-07 17:30 38.52732 25.55632 37122 ft 536 kts 137°
2026-05-07 17:31 38.47447 25.62364 37139 ft 537 kts 137°
2026-05-07 17:31 38.42150 25.69100 37141 ft 537 kts 137°
2026-05-07 17:32 38.36851 25.75827 37143 ft 537 kts 137°
2026-05-07 17:32 38.31578 25.82497 37150 ft 537 kts 137°
2026-05-07 17:33 38.26011 25.88819 37150 ft 533 kts 149°
2026-05-07 17:33 38.19575 25.93132 37143 ft 521 kts 166°
2026-05-07 17:34 38.12755 25.96236 37130 ft 520 kts 166°
2026-05-07 17:34 38.05923 25.99349 37120 ft 521 kts 166°
2026-05-07 17:35 37.99075 26.02470 37119 ft 523 kts 166°
2026-05-07 17:35 37.92252 26.05577 37120 ft 524 kts 166°
2026-05-07 17:36 37.85614 26.08579 37117 ft 526 kts 167°
2026-05-07 17:36 37.78705 26.11699 37115 ft 527 kts 166°
2026-05-07 17:37 37.71789 26.14818 37118 ft 528 kts 167°
2026-05-07 17:37 37.64901 26.17901 37117 ft 529 kts 167°
2026-05-07 17:38 37.57940 26.21007 37118 ft 530 kts 166°
2026-05-07 17:38 37.50972 26.24136 37120 ft 531 kts 166°
2026-05-07 17:39 37.44003 26.27261 37127 ft 531 kts 166°
2026-05-07 17:39 37.37067 26.30363 37128 ft 532 kts 167°
2026-05-07 17:40 37.30082 26.33467 37126 ft 532 kts 167°
2026-05-07 17:40 37.23093 26.36574 37126 ft 533 kts 167°
2026-05-07 17:41 37.16093 26.39673 37118 ft 533 kts 167°
2026-05-07 17:41 37.09122 26.42753 37123 ft 534 kts 166°
2026-05-07 17:42 37.02096 26.45866 37122 ft 535 kts 166°
2026-05-07 17:42 36.95188 26.49427 37130 ft 543 kts 153°
2026-05-07 17:43 36.92039 26.52066 37127 ft 547 kts 142°
2026-05-07 17:43 36.89237 26.55300 37128 ft 547 kts 131°
2026-05-07 17:43 36.85035 26.63059 37131 ft 540 kts 110°
2026-05-07 17:44 36.83555 26.67359 36916 ft 537 kts 108°
2026-05-07 17:44 36.82092 26.71662 35649 ft 541 kts 109°
2026-05-07 17:44 36.80611 26.75971 34919 ft 539 kts 110°
2026-05-07 17:44 36.79122 26.80281 34077 ft 543 kts 111°
2026-05-07 17:45 36.77612 26.84635 33158 ft 546 kts 111°
2026-05-07 17:45 36.76101 26.88977 32287 ft 546 kts 111°
2026-05-07 17:45 36.74590 26.93316 31617 ft 543 kts 111°
2026-05-07 17:45 36.73108 26.97583 30782 ft 541 kts 110°
2026-05-07 17:46 36.71620 27.01872 29333 ft 538 kts 111°
2026-05-07 17:46 36.70136 27.06150 27805 ft 534 kts 111°
2026-05-07 17:46 36.68675 27.10362 26824 ft 520 kts 111°
2026-05-07 17:46 36.67266 27.14410 26319 ft 498 kts 111°
2026-05-07 17:47 36.65922 27.18263 25639 ft 488 kts 112°
2026-05-07 17:47 36.64552 27.22184 24963 ft 484 kts 112°
2026-05-07 17:47 36.63226 27.25964 24311 ft 480 kts 112°
2026-05-07 17:47 36.61889 27.29765 23661 ft 476 kts 113°
2026-05-07 17:48 36.60563 27.33525 22974 ft 471 kts 113°
2026-05-07 17:48 36.59254 27.37234 22378 ft 465 kts 113°
2026-05-07 17:48 36.57960 27.40893 21785 ft 459 kts 113°
2026-05-07 17:48 36.56676 27.44523 21202 ft 454 kts 113°
2026-05-07 17:49 36.55430 27.48053 20663 ft 449 kts 113°
2026-05-07 17:49 36.54180 27.51599 20114 ft 445 kts 113°
2026-05-07 17:49 36.52943 27.55105 19597 ft 440 kts 113°
2026-05-07 17:49 36.51717 27.58575 19084 ft 436 kts 113°
2026-05-07 17:50 36.50502 27.62004 18608 ft 431 kts 113°
2026-05-07 17:50 36.49294 27.65400 18088 ft 427 kts 113°
2026-05-07 17:50 36.48097 27.68764 17623 ft 421 kts 113°
2026-05-07 17:50 36.46969 27.72094 17154 ft 415 kts 108°
2026-05-07 17:51 36.46234 27.75490 16699 ft 409 kts 98°
2026-05-07 17:51 36.45772 27.78960 16244 ft 405 kts 97°
2026-05-07 17:51 36.45313 27.82397 15768 ft 402 kts 97°
2026-05-07 17:51 36.44854 27.85805 15297 ft 399 kts 97°
2026-05-07 17:52 36.44311 27.89179 14806 ft 398 kts 104°
2026-05-07 17:52 36.43343 27.92394 14318 ft 397 kts 114°
2026-05-07 17:52 36.41939 27.95343 13789 ft 397 kts 125°
2026-05-07 17:52 36.40257 27.98062 13248 ft 395 kts 127°
2026-05-07 17:53 36.38585 28.00752 12710 ft 392 kts 127°
2026-05-07 17:53 36.36950 28.03390 12179 ft 389 kts 127°
2026-05-07 17:53 36.35301 28.06053 11623 ft 387 kts 127°
2026-05-07 17:53 36.33667 28.08695 11082 ft 384 kts 126°
2026-05-07 17:54 36.32107 28.11307 10926 ft 369 kts 125°
2026-05-07 17:54 36.30639 28.13845 10803 ft 355 kts 124°
2026-05-07 17:54 36.29240 28.16298 10683 ft 342 kts 124°
2026-05-07 17:54 36.27890 28.18662 10555 ft 330 kts 124°
2026-05-07 17:55 36.26599 28.20909 10445 ft 319 kts 124°
2026-05-07 17:55 36.25331 28.23110 10312 ft 309 kts 124°
2026-05-07 17:55 36.24173 28.25312 9756 ft 302 kts 112°
2026-05-07 17:55 36.23684 28.27780 9246 ft 291 kts 89°
2026-05-07 17:56 36.23957 28.30219 8795 ft 284 kts 68°
2026-05-07 17:56 36.24896 28.32323 8284 ft 277 kts 47°
2026-05-07 17:56 36.26352 28.33834 7760 ft 272 kts 27°
2026-05-07 17:56 36.28124 28.34628 7263 ft 273 kts 13°
2026-05-07 17:57 36.29982 28.35166 6866 ft 273 kts 13°
2026-05-07 17:57 36.31197 28.35520 6634 ft 271 kts 13°
2026-05-07 17:57 36.33620 28.36231 6070 ft 268 kts 13°
2026-05-07 17:57 36.35424 28.36763 5546 ft 263 kts 13°
2026-05-07 17:58 36.37203 28.37289 5166 ft 262 kts 13°
2026-05-07 17:58 36.38983 28.37815 4798 ft 262 kts 13°
2026-05-07 17:58 36.40754 28.38335 4434 ft 261 kts 13°
2026-05-07 17:58 36.42537 28.38796 4071 ft 260 kts
2026-05-07 17:59 36.44257 28.38584 3770 ft 245 kts 341°
2026-05-07 17:59 36.45696 28.37664 3696 ft 223 kts 321°
2026-05-07 17:59 36.46738 28.36263 3612 ft 223 kts 302°
2026-05-07 17:59 36.47332 28.34519 3520 ft 216 kts 283°
2026-05-07 18:00 36.47419 28.32696 3430 ft 210 kts 264°
2026-05-07 18:00 36.47043 28.30946 3351 ft 211 kts 252°
2026-05-07 18:00 36.46545 28.29237 3127 ft 210 kts 252°
2026-05-07 18:00 36.46055 28.27550 2865 ft 209 kts 252°
2026-05-07 18:01 36.45569 28.25879 2614 ft 201 kts 252°
2026-05-07 18:01 36.45105 28.24286 2357 ft 192 kts 252°
2026-05-07 18:01 36.44656 28.22742 2090 ft 188 kts 252°
2026-05-07 18:01 36.44216 28.21230 1847 ft 185 kts 252°
2026-05-07 18:02 36.43375 28.18345 1364 ft 172 kts 252°
2026-05-07 18:02 36.42979 28.16991 1165 ft 157 kts 252°
2026-05-07 18:02 36.42619 28.15763 917 ft 147 kts 252°
2026-05-07 18:03 36.42286 28.14605 744 ft 140 kts 250°
2026-05-07 18:03 36.41959 28.13475 533 ft 137 kts 249°
2026-05-07 18:03 36.41635 28.12368 389 ft 137 kts 250°
2026-05-07 18:03 36.41308 28.11250 211 ft 137 kts 249°
2026-05-07 18:04 36.40987 28.10160 43 ft 136 kts 249°
2026-05-07 18:04 36.40707 28.09204 30 ft 93 kts 250°
2026-05-07 18:04 36.40541 28.08641 25 ft 51 kts 251°
2026-05-07 18:04 36.40423 28.08241 24 ft 48 kts 250°
2026-05-07 18:05 36.40299 28.07954 28 ft 24 kts 197°
2026-05-07 18:05 36.40178 28.07857 26 ft 14 kts 203°
2026-05-07 18:05 36.40148 28.07924 26 ft 10 kts 69°
2026-05-07 18:05 36.40170 28.07998 26 ft 8 kts 69°
2026-05-07 18:06 36.40188 28.08058 27 ft 7 kts 70°
2026-05-07 18:06 36.40210 28.08130 27 ft 14 kts 69°
2026-05-07 18:06 36.40235 28.08217 27 ft 16 kts 71°
2026-05-07 18:06 36.40271 28.08340 28 ft 14 kts 70°
2026-05-07 18:07 36.40329 28.08538 28 ft 23 kts 70°
2026-05-07 18:07 36.40384 28.08723 29 ft 23 kts 69°
2026-05-07 18:07 36.40401 28.08850 29 ft 23 kts 93°
2026-05-07 18:07 36.40399 28.08994 29 ft 14 kts 81°
2026-05-07 18:08 36.40397 28.09070 29 ft 7 kts 150°
2026-05-07 18:08 36.40362 28.09084 29 ft 1 kts 160°
2026-05-07 18:08 36.40359 28.09086 29 ft 0 kts 160°
2026-05-07 18:08 36.40357 28.09087 29 ft 0 kts 160°